Temperature
12 11 11 12 12 13 13 13 13 14 15 15 14 15 16 17 17 17 18 19 19 20 21 21 21 21 20 19 19 18 18 17 16 15 15 14 14 14 14 13 13 13 13 12
11 11 12 13 13 13 13 13 13 14 15 15 14 14 15 15 16 17 18 19 19 20 20 21 21 21 20 20 19 19 18 18 17 16 16 16 15 15 14 14 13 13 13 12
10 12 13 13 13 13 13 12 13 13 14 14 14 14 14 15 16 17 18 19 20 20 20 21 21 21 20 20 20 19 19 18 17 17 16 15 14 13 13 13 13 13 13 12
10 12 12 12 13 13 12 13 13 13 13 12 13 12 13 14 15 16 17 18 19 20 21 21 21 21 20 20 20 19 19 18 18 17 16 15 15 14 15 15 14 13 13 13
10 11 12 12 13 13 13 13 13 13 12 12 12 12 12 13 14 15 16 18 19 20 20 21 21 21 21 21 20 20 19 18 18 17 16 16 16 16 15 14 14 13 13 13
11 12 12 12 13 13 13 13 12 12 11 11 12 11 12 13 14 15 16 18 19 20 20 20 21 21 21 20 20 19 19 18 18 17 17 16 16 16 15 14 14 14 13 13
10 11 12 12 12 12 12 11 11 11 10 11 12 12 12 13 14 15 16 18 19 20 20 20 20 20 20 20 20 19 19 18 18 17 17 17 16 16 15 15 15 14 14 13
9 10 11 11 12 11 11 11 11 11 10 10 11 12 13 14 14 16 17 18 19 19 19 19 20 20 20 20 19 19 19 18 18 18 17 17 16 16 15 15 15 14 14 14
9 9 11 11 12 12 11 11 11 11 10 10 10 11 12 14 14 15 15 16 17 18 19 19 19 20 19 19 19 19 19 18 18 18 17 17 16 16 16 15 15 14 14 14
9 9 10 11 11 11 11 11 10 10 10 10 10 11 12 14 14 15 14 15 17 18 18 19 19 19 19 19 19 19 18 18 18 18 17 17 16 16 16 15 14 14 14 13
9 8 9 9 10 10 10 11 10 10 9 9 9 11 13 13 14 14 14 16 17 17 18 18 18 18 18 18 18 18 18 18 17 17 17 17 16 16 15 15 14 14 14 13
8 8 8 8 9 10 10 10 10 9 9 9 9 11 13 13 13 14 14 16 17 17 17 18 18 18 18 18 18 18 18 18 18 17 17 17 16 16 15 15 14 14 13 13
8 7 7 7 8 9 9 9 9 9 9 8 9 11 13 12 13 14 14 15 16 16 17 17 17 17 17 17 17 17 18 18 17 17 17 16 16 16 15 15 14 14 13 13
8 6 7 8 8 8 8 8 9 9 8 8 9 10 12 12 13 13 14 15 15 16 16 16 17 17 17 17 17 17 17 17 17 17 16 16 16 15 15 15 14 14 13 13
7 6 6 7 8 8 8 8 9 9 9 9 10 10 12 12 12 13 14 14 14 15 15 15 16 16 17 17 17 17 17 17 16 16 16 16 16 15 15 14 14 13 13 12
6 6 6 6 7 8 8 8 9 9 9 9 9 10 12 12 13 12 13 13 13 14 14 15 15 15 16 16 16 16 16 16 16 16 16 16 15 15 14 14 14 13 13 12
5 5 5 6 7 7 7 8 9 9 9 9 10 11 11 11 11 12 12 13 13 13 14 14 15 15 15 15 16 16 16 16 15 15 15 15 15 15 14 14 13 13 12 12
5 5 5 5 6 6 8 9 9 9 9 10 10 10 11 11 12 12 13 13 13 13 13 14 14 14 15 15 15 15 15 15 15 15 15 15 14 14 14 13 13 12 12 11
5 5 4 4 5 6 7 8 8 8 9 9 9 10 10 11 11 11 12 12 12 13 13 13 14 14 14 14 14 14 14 14 14 14 14 14 14 14 13 13 12 12 11 11
5 5 5 4 5 5 7 8 9 8 8 9 9 9 9 9 8 10 11 11 12 12 12 12 13 13 13 13 14 14 14 14 14 14 14 14 13 13 13 12 12 11 11 10
4 4 4 4 5 6 7 8 8 7 8 8 9 9 9 8 9 10 10 11 11 11 11 12 12 12 12 13 13 13 13 13 13 13 13 13 13 12 12 11 11 10 10 9
5 4 4 4 4 5 7 7 7 8 9 9 9 9 9 9 9 9 10 10 10 10 11 11 11 11 12 12 12 12 12 12 12 12 12 12 12 11 11 10 10 9 9 8
5 5 5 5 6 7 8 8 9 9 9 9 9 9 9 9 9 9 9 9 9 10 10 10 10 10 11 11 11 11 12 12 11 11 11 11 11 10 10 10 9 8 8 8
4 5 4 4 5 6 7 8 8 8 8 8 8 8 8 8 8 8 8 9 9 9 9 9 9 10 10 10 10 10 10 10 10 10 10 10 10 9 9 9 8 8 8 7
4 4 4 4 5 5 7 7 8 8 8 8 8 8 7 7 7 7 7 8 8 8 8 8 8 9 9 9 9 9 9 9 9 9 9 9 9 8 8 8 7 7 7 7
3 3 3 4 5 5 6 7 7 7 7 7 7 7 7 6 6 6 6 7 7 6 7 7 7 7 7 8 8 8 8 8 8 8 8 8 8 7 7 6 6 5 5 5
Wind_Speed
3 4 10 13 14 9 7 7 9 9 7 8 14 19 19 14 11 13 13 13 14 16 15 12 14 14 14 15 17 19 19 18 15 13 12 12 12 10 10 10 15 17 17 18
2 11 13 9 9 10 9 10 10 8 6 7 11 17 15 13 13 14 15 15 16 14 12 11 11 12 15 17 18 19 20 19 18 16 14 11 10 8 9 8 11 16 17 17
11 7 7 9 9 10 12 12 11 9 7 6 7 11 12 10 11 13 13 14 13 16 15 13 12 13 14 16 18 18 20 19 19 16 10 7 5 4 6 9 10 12 16 16
10 9 7 9 11 11 14 10 11 9 6 6 4 8 10 9 11 13 14 14 14 14 13 12 13 13 14 16 16 17 18 19 18 16 14 14 12 12 12 10 10 10 13 14
8 8 10 13 13 12 8 6 8 9 8 8 7 7 9 6 11 13 13 14 14 13 13 13 14 14 14 14 14 15 16 17 17 17 18 17 15 12 8 7 10 11 11 12
8 6 7 9 8 9 5 3 4 3 3 10 12 9 9 7 11 11 11 12 13 12 11 11 10 10 10 10 12 13 15 16 17 18 18 19 17 14 11 11 12 11 9 10
6 9 7 5 5 5 5 4 3 4 5 10 7 8 10 11 10 11 12 12 12 10 9 9 9 9 10 11 12 13 15 16 17 18 18 19 19 17 17 15 14 12 9 10
6 7 8 7 10 8 10 10 8 7 6 5 4 10 9 10 10 10 11 9 8 8 8 9 10 10 10 11 13 14 16 16 17 18 18 16 16 14 13 14 12 13 12 12
6 7 4 7 6 9 8 10 7 3 3 4 7 7 9 7 7 7 7 7 8 9 9 9 9 9 9 10 13 15 16 15 16 17 16 15 15 14 13 13 12 10 9 9
5 5 5 4 3 6 7 7 5 6 6 7 7 7 6 6 8 8 8 8 10 8 8 8 8 9 9 9 9 10 13 15 14 15 15 14 15 15 13 12 13 12 11 10
4 5 4 3 9 10 6 7 6 6 5 6 6 8 7 10 9 9 9 8 8 8 8 8 8 8 7 7 7 9 10 11 12 14 14 14 14 13 12 12 13 12 11 11
6 5 6 8 6 6 8 9 9 8 8 6 6 9 6 6 6 6 7 7 6 7 7 7 7 6 6 7 7 9 9 10 12 12 12 13 12 12 12 13 12 12 12 11
5 4 4 4 3 3 5 7 7 6 5 7 8 10 4 4 6 5 6 6 6 6 6 5 5 6 7 8 8 9 9 10 10 10 11 12 12 12 13 13 11 11 11 11
3 5 8 10 6 5 7 9 9 8 8 9 12 14 13 10 10 10 9 9 7 6 5 5 6 6 7 8 8 9 9 9 9 9 11 12 13 13 13 11 11 11 11 11
3 7 9 11 9 8 10 13 14 15 14 14 15 18 19 13 10 9 9 9 8 8 7 7 7 8 7 7 7 8 9 8 8 9 11 13 12 11 10 10 10 10 10 10
3 5 6 10 10 11 13 16 17 18 17 18 18 22 17 12 10 10 10 10 10 10 9 9 8 8 8 9 9 9 9 8 8 10 11 10 10 10 11 11 10 10 10 9
4 4 4 8 8 7 13 15 17 15 15 15 21 23 14 12 12 12 11 11 11 11 10 9 9 9 10 10 9 10 10 8 8 9 9 9 10 11 11 10 10 11 10 9
7 6 4 4 4 12 11 7 12 15 16 16 16 16 13 14 13 11 10 10 11 11 10 10 9 8 8 8 8 7 6 7 8 9 9 9 9 10 10 10 11 10 8 9
11 9 5 4 7 11 10 6 8 12 15 13 15 16 14 12 9 12 9 8 10 10 10 9 9 8 7 7 7 6 6 7 8 9 9 9 10 10 10 11 11 8 8 8
10 9 7 6 7 9 9 4 4 5 11 9 10 12 11 6 7 12 9 8 9 9 8 7 7 6 6 6 5 6 7 7 9 10 10 9 10 11 11 11 9 7 7 8
7 8 11 11 10 10 9 4 2 6 8 4 6 9 8 8 11 11 8 7 7 7 7 6 5 5 6 4 5 6 6 9 9 7 6 7 8 10 9 8 7 7 7 7
10 8 9 8 10 12 6 4 6 8 5 4 5 6 7 9 10 9 8 8 8 7 6 5 5 5 4 3 5 6 7 7 4 4 5 6 7 7 7 8 7 8 9 8
10 10 7 9 10 6 5 7 6 4 5 6 6 7 6 7 8 8 8 8 8 7 6 5 5 6 5 3 4 6 6 3 3 4 5 5 5 6 7 8 9 8 8 7
6 5 6 8 10 9 9 8 7 6 8 8 7 7 7 8 8 9 8 8 7 7 6 5 4 5 5 4 4 5 3 3 4 5 4 5 6 6 6 6 7 8 8 7
7 5 6 11 10 8 9 9 9 9 9 9 8 7 7 8 9 9 8 8 6 7 6 5 5 5 6 4 4 3 2 3 4 5 5 5 5 6 6 5 5 6 6 8
7 8 9 11 8 7 9 8 7 7 8 8 8 8 7 7 8 8 7 7 6 6 6 5 5 5 5 4 4 3 2 4 5 5 5 4 4 5 5 5 3 3 3 6
Wind_Direction
194 186 212 213 210 213 214 228 244 252 247 230 241 252 259 259 253 248 246 244 239 237 237 227 216 207 199 195 193 192 190 188 183 185 187 189 196 196 196 199 198 197 196 194
209 228 228 224 219 220 233 245 254 274 267 242 253 259 260 252 245 244 242 239 238 240 241 232 218 204 197 194 193 192 192 188 187 191 192 192 189 192 196 196 198 199 197 195
214 233 221 225 227 224 236 235 241 258 304 292 282 279 263 258 246 248 244 239 236 232 231 228 217 209 200 197 194 194 193 191 191 187 179 166 160 167 186 199 202 202 199 198
230 239 231 228 231 219 241 235 241 252 267 271 244 273 267 257 262 253 247 241 236 234 229 223 215 210 204 202 196 194 192 191 190 183 182 180 189 199 203 199 200 200 200 200
227 210 215 226 229 217 231 232 240 245 242 259 246 253 272 258 255 255 248 243 239 234 225 220 215 211 207 198 192 192 189 191 188 187 189 190 199 204 196 189 194 201 204 203
245 236 218 223 233 222 223 235 266 253 227 250 233 226 269 232 232 249 251 245 240 234 228 224 219 208 204 193 189 187 187 191 189 190 192 194 198 195 188 194 199 204 206 207
255 246 235 206 220 229 194 170 229 235 227 242 216 218 250 240 236 234 243 245 239 232 224 219 211 206 202 193 190 188 188 192 191 192 196 199 200 197 199 200 203 203 205 209
226 248 221 209 206 206 207 191 200 214 227 261 224 228 248 248 250 250 249 250 243 231 222 218 213 203 200 199 194 191 193 194 192 194 199 200 199 201 206 205 204 206 210 212
212 245 228 217 207 183 193 211 207 214 258 257 247 265 291 271 266 261 256 249 243 234 226 221 216 207 202 201 200 195 195 196 196 196 197 199 200 201 205 203 203 206 208 204
194 251 255 233 209 214 191 176 166 197 219 240 261 251 240 251 254 259 257 246 246 243 237 232 221 214 210 207 204 198 198 199 198 197 198 201 202 204 203 199 203 205 204 198
201 231 265 223 206 211 193 193 198 202 209 211 248 257 224 221 235 243 252 253 251 248 242 236 230 221 214 208 201 200 200 201 200 200 200 200 201 201 199 202 205 204 200 197
204 211 242 239 240 228 211 207 194 210 229 220 235 262 254 237 252 246 255 265 270 263 252 245 235 222 217 214 211 208 205 205 206 202 199 201 200 196 199 204 204 199 198 197
186 199 241 282 272 230 222 218 214 219 222 226 233 257 281 293 295 292 287 286 281 277 269 263 246 230 223 219 215 213 211 211 208 198 197 199 198 197 201 204 199 195 195 194
209 209 220 228 232 212 231 236 225 216 228 240 238 255 273 280 285 293 294 293 290 285 278 267 257 246 234 223 218 217 218 211 203 198 197 201 203 201 201 198 193 193 192 191
197 231 240 253 258 241 239 238 232 230 232 241 251 252 258 264 268 277 286 290 291 289 284 272 260 253 245 235 226 220 219 211 201 198 202 207 204 198 194 192 192 189 189 191
198 230 244 257 253 253 257 244 234 235 238 243 256 263 260 263 266 272 275 278 280 279 276 269 262 257 248 235 229 223 220 213 200 202 209 207 197 193 193 193 188 185 187 185
212 213 236 260 259 266 254 237 230 231 230 232 245 254 266 267 264 263 268 269 272 274 272 266 259 252 249 239 227 221 219 208 199 205 207 201 195 194 194 187 184 187 187 182
210 213 229 257 244 246 249 223 223 234 244 238 245 257 257 257 262 260 258 262 269 274 273 269 263 260 253 241 228 222 210 200 200 204 206 200 193 193 187 182 188 189 184 184
210 206 216 226 245 267 275 244 213 222 246 241 247 260 266 268 277 270 265 260 262 268 271 268 261 252 250 240 224 207 204 201 202 207 208 202 193 188 184 187 190 188 182 186
206 203 213 221 237 250 256 242 221 212 254 249 244 259 269 274 269 272 286 277 272 274 275 275 273 257 252 248 213 196 204 203 212 214 210 200 190 187 189 190 186 181 180 184
187 204 217 228 240 258 259 251 143 203 244 259 235 247 256 247 249 273 288 284 279 278 276 275 272 263 255 243 200 205 210 218 222 214 201 192 189 187 185 179 175 169 167 166
196 202 211 213 231 248 244 181 203 233 256 269 261 257 257 259 270 277 280 283 285 285 285 283 276 275 275 238 202 215 224 226 208 187 188 189 185 176 168 167 169 165 164 167
211 209 206 211 228 245 217 209 234 246 259 267 273 277 273 273 277 275 275 278 280 280 286 288 274 279 286 256 215 224 237 211 175 177 186 182 172 168 167 168 168 167 168 173
244 216 218 244 255 260 263 262 265 260 262 268 267 273 276 276 279 281 281 283 285 291 290 293 289 283 285 277 253 239 231 185 175 184 185 175 168 168 167 169 169 172 176 178
237 213 227 247 260 277 274 262 262 268 271 272 272 269 269 274 279 278 281 281 284 291 293 293 284 278 279 279 266 254 209 180 186 187 182 176 171 168 167 168 176 179 186 183
223 224 233 248 248 246 264 267 268 269 274 276 277 279 278 271 274 279 281 284 285 287 293 292 285 280 283 282 276 267 218 187 180 181 180 176 170 162 160 153 123 109 146 161
Height
1473 1476 1475 1473 1474 1476 1477 1478 1478 1473 1467 1469 1468 1462 1455 1452 1452 1450 1448 1448 1448 1448 1450 1453 1455 1458 1460 1463 1466 1469 1472 1476 1480 1483 1486 1489 1491 1494 1497 1500 1502 1505 1507 1509
1474 1473 1467 1468 1470 1473 1475 1477 1475 1470 1464 1465 1464 1458 1450 1447 1445 1443 1442 1441 1441 1442 1443 1445 1448 1451 1453 1456 1459 1463 1466 1469 1473 1476 1479 1483 1486 1489 1492 1495 1498 1500 1502 1504
1470 1465 1464 1467 1469 1471 1472 1473 1472 1471 1465 1462 1463 1458 1449 1441 1438 1436 1434 1434 1434 1435 1436 1438 1440 1443 1446 1449 1452 1455 1459 1463 1466 1470 1475 1479 1482 1485 1487 1489 1491 1494 1497 1499
1465 1463 1463 1465 1465 1467 1468 1465 1467 1467 1471 1472 1466 1467 1449 1440 1435 1430 1427 1427 1426 1427 1429 1431 1433 1435 1438 1442 1446 1449 1453 1456 1460 1465 1468 1470 1473 1475 1478 1482 1485 1489 1492 1494
1461 1459 1460 1461 1460 1461 1462 1461 1463 1464 1468 1471 1467 1468 1449 1439 1434 1425 1421 1420 1420 1421 1422 1424 1426 1429 1432 1436 1439 1443 1446 1450 1454 1458 1461 1464 1467 1470 1474 1477 1480 1483 1486 1488
1457 1455 1455 1455 1455 1457 1458 1461 1462 1465 1468 1471 1460 1465 1449 1437 1426 1420 1416 1414 1413 1415 1416 1418 1421 1423 1426 1430 1433 1436 1440 1443 1447 1451 1454 1457 1460 1464 1467 1470 1474 1477 1480 1482
1457 1453 1451 1451 1455 1456 1459 1466 1473 1472 1473 1464 1452 1454 1440 1424 1417 1414 1411 1409 1408 1409 1411 1413 1415 1417 1420 1423 1427 1430 1434 1437 1441 1445 1448 1451 1454 1458 1461 1464 1467 1470 1473 1475
1459 1455 1448 1447 1448 1452 1454 1459 1468 1470 1468 1460 1451 1446 1429 1414 1410 1407 1406 1405 1405 1406 1407 1408 1410 1412 1415 1418 1421 1424 1428 1431 1435 1438 1442 1445 1449 1452 1455 1458 1461 1463 1466 1469
1456 1452 1442 1442 1441 1445 1451 1453 1453 1460 1460 1461 1450 1437 1423 1409 1407 1405 1404 1403 1402 1402 1404 1405 1406 1408 1411 1413 1416 1419 1422 1425 1429 1432 1436 1439 1443 1446 1448 1452 1455 1457 1460 1463
1450 1451 1443 1440 1440 1440 1442 1446 1453 1458 1461 1460 1448 1438 1426 1411 1407 1404 1402 1400 1399 1400 1401 1402 1403 1405 1407 1409 1412 1415 1417 1420 1423 1427 1430 1433 1436 1439 1443 1446 1448 1451 1454 1456
1447 1450 1446 1442 1440 1440 1442 1444 1445 1449 1450 1454 1450 1433 1408 1405 1402 1400 1398 1397 1397 1398 1398 1398 1399 1401 1403 1405 1407 1409 1412 1415 1418 1421 1424 1427 1430 1433 1436 1439 1441 1444 1447 1450
1444 1448 1447 1441 1435 1433 1435 1436 1440 1447 1447 1445 1443 1426 1400 1399 1397 1396 1396 1395 1395 1395 1395 1396 1397 1398 1399 1400 1402 1404 1407 1409 1412 1415 1418 1421 1424 1427 1429 1432 1435 1438 1440 1443
1442 1446 1447 1443 1441 1436 1435 1434 1435 1437 1439 1440 1437 1422 1400 1398 1397 1396 1395 1394 1393 1393 1393 1393 1393 1394 1395 1396 1397 1399 1401 1403 1406 1409 1412 1415 1417 1420 1422 1425 1428 1431 1434 1436
1438 1441 1442 1439 1433 1432 1433 1431 1431 1435 1436 1433 1425 1414 1403 1400 1398 1396 1394 1393 1392 1391 1391 1390 1390 1390 1391 1392 1393 1394 1396 1398 1401 1403 1405 1408 1410 1413 1416 1419 1422 1424 1427 1429
1435 1437 1435 1431 1428 1427 1426 1424 1424 1426 1424 1425 1413 1409 1399 1397 1396 1394 1393 1391 1390 1389 1388 1388 1388 1387 1387 1388 1389 1390 1391 1393 1395 1397 1399 1401 1404 1407 1410 1413 1415 1418 1420 1422
1433 1433 1432 1428 1424 1423 1420 1416 1416 1415 1414 1412 1408 1401 1392 1393 1393 1391 1390 1389 1387 1385 1385 1384 1384 1383 1383 1383 1383 1384 1385 1387 1388 1390 1392 1395 1398 1401 1403 1406 1409 1411 1413 1416
1432 1433 1432 1427 1422 1420 1416 1407 1406 1405 1401 1402 1400 1390 1388 1389 1388 1387 1386 1385 1383 1382 1380 1380 1379 1379 1378 1378 1378 1378 1379 1381 1383 1384 1386 1388 1391 1394 1396 1399 1402 1404 1407 1409
1428 1429 1430 1427 1424 1422 1401 1393 1394 1395 1393 1392 1389 1384 1383 1383 1381 1381 1381 1380 1378 1377 1376 1374 1373 1372 1372 1372 1373 1373 1374 1375 1377 1378 1380 1382 1384 1386 1389 1392 1395 1398 1400 1402
1419 1423 1426 1425 1421 1409 1396 1391 1390 1390 1386 1384 1383 1380 1379 1379 1378 1375 1375 1375 1373 1372 1370 1369 1367 1367 1366 1366 1367 1367 1368 1369 1370 1371 1373 1375 1377 1380 1382 1385 1388 1391 1393 1396
1412 1415 1420 1420 1416 1407 1389 1383 1382 1386 1384 1377 1378 1376 1376 1376 1380 1371 1370 1370 1368 1366 1365 1363 1362 1361 1360 1360 1361 1361 1361 1362 1363 1365 1367 1369 1371 1373 1375 1378 1381 1384 1387 1390
1409 1411 1412 1411 1408 1396 1383 1380 1381 1389 1379 1372 1372 1371 1371 1372 1371 1367 1366 1365 1363 1361 1360 1359 1357 1356 1355 1355 1356 1355 1356 1356 1358 1359 1361 1362 1364 1367 1369 1372 1375 1378 1381 1384
1400 1402 1403 1402 1402 1392 1376 1377 1379 1374 1370 1370 1368 1367 1366 1364 1363 1363 1362 1360 1358 1356 1354 1353 1352 1351 1351 1351 1350 1350 1350 1351 1352 1353 1354 1356 1358 1361 1363 1366 1369 1372 1375 1378
1390 1388 1388 1387 1382 1373 1370 1370 1369 1369 1368 1366 1366 1364 1363 1360 1359 1357 1356 1354 1353 1351 1349 1348 1347 1346 1346 1346 1345 1345 1345 1346 1346 1348 1349 1350 1352 1355 1357 1360 1363 1366 1369 1371
1382 1380 1381 1380 1372 1369 1367 1366 1366 1366 1365 1363 1362 1360 1359 1356 1354 1353 1351 1349 1347 1346 1344 1343 1342 1341 1340 1340 1339 1339 1339 1340 1341 1342 1343 1345 1346 1349 1351 1354 1357 1360 1362 1365
1376 1376 1375 1372 1367 1366 1363 1362 1362 1361 1359 1358 1357 1356 1354 1352 1350 1349 1347 1345 1343 1341 1340 1338 1337 1336 1335 1334 1334 1334 1334 1335 1335 1337 1338 1339 1341 1343 1345 1348 1351 1354 1356 1359
1370 1371 1371 1366 1363 1363 1359 1358 1357 1356 1354 1353 1352 1350 1349 1348 1345 1344 1342 1340 1339 1337 1335 1334 1332 1331 1330 1329 1328 1329 1329 1330 1330 1331 1332 1334 1336 1338 1340 1343 1346 1349 1352 1354